NOAA NWS Hourly Roundups by Site

Regional Weather Roundup for Bismarck, ND

To Select Another Site Choose from List

Select Site:  

000
ASUS43 KBIS 140010
RWRBIS

NWR BROADCAST TEXT
NATIONAL WEATHER SERVICE BISMARCK ND
600 PM CST WED NOV 13 2019

NOTE: "FAIR" INDICATES FEW OR NO CLOUDS BELOW 12,000 FEET WITH NO
SIGNIFICANT WEATHER AND/OR OBSTRUCTIONS TO VISIBILITY.


CITY           SKY/WX    TMP DP  RH WIND       PRES   REMARKS
WILLISTON      CLOUDY    29  22  75 CALM      30.07S
MINOT          CLEAR     19  12  74 W7        30.07R WCI  10
MINOT AFB      NOT AVBL
BISMARCK       CLEAR     27  15  61 NW12      30.10R WCI  17
DICKINSON      CLEAR     25  20  81 NW8       30.07R WCI  16
GARRISON         N/A     19  13  77 NW12      30.07R WCI   7
HETTINGER ARPT CLOUDY    30  26  85 NW9       30.09R
JAMESTOWN      CLOUDY    20  14  77 N15       30.07R WCI   6
CARRINGTON     FAIR      16  10  79 NW9       30.10R WCI   4
HAZEN          FAIR      21  14  73 W7        30.11R WCI  13
MANDAN         FAIR      19  14  79 NW8       30.09R WCI   9
OAKES          CLOUDY    23  16  74 N12       30.07R WCI  12
RUGBY          FAIR       9   7  92 NW5       30.08R WCI   0
STANLEY          N/A     21  14  73 NW8       30.07R WCI  12
TIOGA          FAIR      21  14  73 W3        30.09R
WATFORD CITY   CLOUDY    27  23  86 SW6       30.09S WCI  20
$$

CITY           SKY/WX    TMP DP  RH WIND       PRES   REMARKS
GRAND FORKS    CLOUDY    17   8  67 N12       30.09R WCI   4
GRAND FORKS AF CLOUDY    18  10  73 N8        30.09R WCI   7
DEVILS LAKE    PTCLDY    11   7  84 NW7       30.09R WCI   0
FARGO          CLOUDY    21  14  74 NW12      30.08R WCI   9
CANDO          FAIR      12   9  85 NW7       30.10R WCI   2
CAVALIER       CLOUDY    16  12  86 NW6       30.10R WCI   7
GRAFTON        MOCLDY    16  10  79 N10       30.12R WCI   3
GWINNER        MOCLDY    21  18  86 N10       30.07R WCI  10
LANGDON        MOCLDY    12   9  85 N3        30.05R
ROLLA          FAIR       9   3  78 W7        30.06R WCI  -3
WALHALLA       CLOUDY    16  10  79 NW6       30.10R WCI   7
$$

CITY           SKY/WX    TMP DP  RH WIND       PRES   REMARKS
ABERDEEN       CLEAR     27  17  66 N9        30.08R WCI  18
MOBRIDGE       CLEAR     29  20  69 N7        30.06R
BUFFALO          N/A     32  26  78 NW12      30.06R
RAPID CITY     CLEAR     35  30  82 N10       30.08R
GLASGOW        MOCLDY    32  27  81 CALM      30.09S
SIDNEY         CLOUDY    32  28  85 SW6       30.11S
WOLF POINT     PTCLDY    32  27  81 SW3       30.11S
GLENDIVE       CLOUDY    34  29  82 W6        30.11R
MILES CITY     CLOUDY    38  34  85 CALM      30.11R
BAKER          CLOUDY    32  28  85 NW7       30.10R
$$

CITY           SKY/WX    TMP DP  RH WIND       PRES   REMARKS
BILLINGS       MOCLDY    42  36  79 NE7       30.11R
GREAT FALLS    CLEAR     42  25  50 N5        30.09S
REGINA         CLOUDY    21  14  73 S5        30.05S WCI  15
ESTEVAN        CLEAR     18  12  79 NW3       30.07S
$$



 

View Past Reports for Bismarck, ND.

Products Courtesy of NOAA-NWS
NWS Information Parsing Script by Ken True at Saratoga Weather - Script by SE Lincoln Weather.